User: anonymous   Login
Location: Unspecified
(0.0000°N, 0.0000°E)
Time: 08:32:53
(UTC+00:00)
Language:

SES 6 - Orbit

View from above orbital plane
View from above orbital plane
View from above satellite
View from above satellite

Ground track
Ground track

The orbit data is extracted from the following two-line orbital elements,

1 39172U 13026A   15029.33656777 -.00000279  00000-0  00000+0 0  4392
2 39172 000.0432 280.9335 0002298 028.4217 259.5336 01.00272069  6060
Epoch (UTC): 29 January 2015 08:04:39
Eccentricity: 0.0002298
inclination: 0.0432°
perigee height: 35776 km
apogee height: 35796 km
right ascension of ascending node: 280.9335°
argument of perigee: 28.4217°
revolutions per day: 1.00272069
mean anomaly at epoch: 259.5336°
orbit number at epoch: 606

The dashed part of the orbit path shows where the satellite is in the earth's shadow,  

DLR